Other Public Products
Issued by NWS Grand Forks, ND

Home | Current Version | Previous Version | Graphics & Text | Print | Product List | Glossary On
Versions: 1 2 3 4 5 6 7 8 9 10 11 12 13 14 15 16 17 18 19 20 21 22 23 24 25 26 27 28 29 30 31 32 33 34 35 36 37 38 39 40 41 42 43 44 45 46 47 48 49 50
000
FPUS83 KFGF 261910
OPUFGF
PRAIRIE TO PINES WEATHER ROUNDUP
NATIONAL WEATHER SERVICE EASTERN NORTH DAKOTA/GRAND FORKS ND
100 PM CST FRI DEC 26 2014

 **SATELLITE DATA USED TO AUGMENT SKY COVER AT AUTOMATED STATIONS**
 *****  WEATHER ACROSS EASTERN NORTH DAKOTA  *****

CITY           SKY/WX    TMP DP  RH WIND       PRES   REMARKS
GRAND FORKS    CLOUDY    21  13  71 NW13      30.18F WCI   9
GRAND FORKS AF CLOUDY    18  13  82 NW12      30.19S WCI   5
GRAND CITY NWS   N/A     21 N/A N/A N12         N/A  WCI   9
BUXTON         NOT AVBL
DEVILS LAKE    FAIR       7  -2  66 NW13      30.17F WCI  -9
FARGO          CLOUDY    25  18  74 NW12      30.15F WCI  14
WAHPETON ARPT  CLOUDY    27  19  74 N12G18    30.13F WCI  16
$$

 *****  WEATHER ACROSS CENTRAL AND WESTERN NORTH DAKOTA  *****

CITY           SKY/WX    TMP DP  RH WIND       PRES   REMARKS
JAMESTOWN      CLOUDY    11   5  77 NW13      30.16F WCI  -4
BISMARCK       CLOUDY    18  12  77 NW8       30.17F WCI   8
MINOT          PTSUNNY   12   4  70 W8        30.17F WCI   0
MINOT AFB      CLOUDY     9   6  89 N5        30.18F WCI   0
GARRISON         N/A     13   7  77 NW7       30.16F WCI   3
WILLISTON      CLOUDY    17  12  80 CALM      30.16F
DICKINSON      FAIR      22  13  68 NW6       30.08F WCI  14
HETTINGER      PTSUNNY   22  12  65 N10       30.11F WCI  11
$$

 *****  OTHER OBSERVATIONS NORTHEAST NORTH DAKOTA  *****

CITY           SKY/WX    TMP DP  RH WIND       PRES   REMARKS
WALHALLA         N/A      9   3  78 W8        30.21S WCI  -4
LANGDON        FAIR       5  -2  72 NW15      30.15S WCI -13
CAVALIER       CLOUDY     9   3  78 NW12      30.20F WCI  -6
GRAFTON        NOT AVBL
CANDO          FAIR       7   1  78 NW14      30.18F WCI -10
FORT TOTTEN    NOT AVBL
ROLLA          FAIR       5   0  78 CALM      30.15S
RUGBY          FAIR       5   1  85 W15       30.18F WCI -13
 ***** THE ABOVE OBSERVATIONS ARE NON NWS ARE NOT QUALITY
        CONTROLLED AND MAY MIS-REPORT RAIN FOR SNOW...
$$

 *****  OTHER OBSERVATIONS SOUTHEAST NORTH DAKOTA *****

CITY           SKY/WX    TMP DP  RH WIND       PRES   REMARKS
COOPERSTOWN    NOT AVBL
VALLEY CITY    CLOUDY    14  14 100 NW15      30.16S WCI  -1
OAKES            N/A     19  19 100 NW15      30.15S WCI   5
GWINNER        CLOUDY    25  23  93 N14       30.15S WCI  13
SHEYENNE NWR     N/A     24  15  69 N9        29.95  WCI  14
BUFFALO        NOT AVBL
WYNDMERE         N/A     25  19  80 N12         N/A  WCI  14
 ***** THE ABOVE OBSERVATIONS ARE NON NWS ARE NOT QUALITY
       CONTROLLED AND MAY MIS-REPORT RAIN FOR SNOW...
$$

  *****  WEATHER ACROSS NORTHERN MINNESOTA  *****

CITY           SKY/WX    TMP DP  RH WIND       PRES   REMARKS
FLAG ISLAND    CLOUDY    18  12  79 NW9       30.12S WCI   6
WARROAD        CLOUDY    21  16  79 CALM      30.13F
ROSEAU         FLURRIES  23  16  74 W7        30.13F WCI  15
HALLOCK        FLURRIES  16  10  79 NW10      30.19S WCI   3
THF RVR FALLS  CLOUDY    21  18  86 NW13      30.14S WCI   9
HALSTAD          N/A     24  18  78 N14         N/A  WCI  11
FOSSTON        LGT SNOW  21  18  86 NW10      30.12S WCI  10
BAUDETTE       CLOUDY    21  14  74 NW13      30.11S WCI   9
WASKISH        CLOUDY    23  18  80 CALM      30.10F
CROOKSTON      CLOUDY    19  18  93 NW15      30.18S WCI   5
$$
  *****  WEATHER ACROSS CENTRAL AND WEST MINNESOTA  *****

CITY           SKY/WX    TMP DP  RH WIND       PRES   REMARKS
BEMIDJI        CLOUDY    24  16  71 N9        30.09S WCI  14
PARK RAPIDS    CLOUDY    26  18  71 NW9       30.06F WCI  17
WADENA         CLOUDY    25  19  80 N13       30.06S WCI  13
DETROIT LAKES  CLOUDY    25  21  86 N10G17    30.10F WCI  15
MOORHEAD       DRIZZLE   25  23  93 N16       30.15F WCI  12
FERGUS FALLS   CLOUDY    25  19  80 N9G20     30.13F WCI  15
ELBOW LAKE     CLOUDY    25  19  80 N12G18    30.09S WCI  14
MORRIS MN      FAIR      27  23  86 N12       30.09S WCI  16
STAPLES        CLOUDY    27  19  74 N10       30.06S WCI  17
WHEATON        CLOUDY    23  19  86 NW15      30.15S WCI  10
$$
  *****  WEATHER ELSEWHERE ACROSS MINNESOTA  *****

CITY           SKY/WX    TMP DP  RH WIND       PRES   REMARKS
DULUTH         FLURRIES  30  21  69 N8        30.00S WCI  22
INTRNTL FALLS  CLOUDY    24  18  77 W9        30.07F WCI  14
ELY            CLOUDY    28  21  74 NW3       30.01F
CLOQUET        CLOUDY    28  21  74 N8        30.01F WCI  20
BRAINERD       CLOUDY    28  19  69 N10       30.06S WCI  19
HIBBING        CLOUDY    27  21  78 NW9       30.04S WCI  18
ALEXANDRIA     CLOUDY    26  20  77 N12       30.08R WCI  16
SAINT CLOUD    CLOUDY    32  23  69 N10       30.05R WCI  24
MINNEAPOLIS    CLOUDY    32  26  78 N12       30.01F WCI  23
$$

  *****  WEATHER ACROSS SOUTH DAKOTA  *****

CITY           SKY/WX    TMP DP  RH WIND       PRES   REMARKS
SIOUX FALLS    CLOUDY    28  22  78 N15       30.03F WCI  16
BROOKINGS      NOT AVBL
WATERTOWN      CLOUDY    23  18  81 N14       30.08F WCI  11
HURON          CLOUDY    24  18  77 N15       30.12F WCI  11
SISSETON       NOT AVBL
ABERDEEN       CLOUDY    24  18  77 N17       30.15F WCI  11
MITCHELL       CLOUDY    25  20  81 N18       30.11F WCI  11
PIERRE         LGT SNOW  23  18  81 N14       30.15R WCI  11
MOBRIDGE       PTSUNNY   21  11  65 N13       30.13F WCI   9
RAPID CITY     MIX PCPN  19  14  81 N9        30.09F WCI   8
$$

  *****  SOME WEATHER IN NEARBY STATES *****

CITY           SKY/WX    TMP DP  RH WIND       PRES   REMARKS
GLASGOW MT     FAIR      25  17  72 SE10      30.08F WCI  15
GREAT FALLS MT LGT SNOW  19  15  84 W6        30.13S FOG     WCI  11
CHEYENNE WY    FLURRIES  15   7  70 N3        29.88F
SCOTTSBLUFF NE LGT SNOW  21  16  81 N3        30.03F VSB 3/4
OMAHA NE       CLOUDY    34  30  85 N12       29.98F
DES MOINES IA  CLOUDY    34  31  88 N7        29.95F FOG
DAVENPORT IA   FAIR      50  36  58 SW12      29.95F
CHICAGO IL     PTSUNNY   48  37  65 SW14      29.98F
EAU CLAIRE WI  CLOUDY    35  29  78 N8        29.96R
LA CROSSE WI   FAIR      42  32  67 NW7       29.93F
$$

  *****  SOME NATIONAL WEATHER *****

CITY           SKY/WX    TMP DP  RH WIND       PRES   REMARKS
LA GUARDIA NY  FAIR      49  30  48 NW9       30.19F
RALEIGH NC     FAIR      57  35  43 SW6       30.29F
ATLANTA GA     FAIR      57  35  43 CALM      30.28F
NEW ORLEANS LA PTSUNNY   66  54  65 E12       30.14F
OKLAHOMA CITY  PTSUNNY   60  45  57 S17G25    29.86F
ALBUQUERQUE NM FAIR      35  15  44 SW20G25   29.86F WCI  24
SALT LAKE CITY PTSUNNY   27  19  72 N10       30.02S WCI  17
LOS ANGELES CA FAIR      57  19  22 CALM      30.09F
BOISE ID       FAIR      34  25  69 W7        30.20R
SEATTLE WA     FOG       36  34  92 CALM      30.39R VSB 1/2
$$

*** WEATHER ACROSS MANITOBA...SASKATCHEWAN AND ONTARIO ***
                ***ONTARIO***

CITY           SKY/WX    TMP DP  RH WIND       PRES   REMARKS
GERALDTON      FLURRIES  27  25  93 N6        29.98R WCI  20
THUNDER BAY    PTSUNNY   32  25  74 NW7       30.02S
SIOUX LOOKOUT  NOT AVBL
TORONTO        PTSUNNY   46  36  66 SW10      30.08F
BIG TROUT LK   FLURRIES  10   7  85 W14       30.02R WCI  -5
PICKLE LAKE    FLURRIES  21  14  73 W5        29.99F WCI  15
DRYDEN         FLURRIES  18  14  86 NW9       30.06S WCI   6
KENORA         FLURRIES  12   9  85 NW12      30.11R WCI  -2
$$
                *** MANITOBA***

CITY           SKY/WX    TMP DP  RH WIND       PRES   REMARKS
BRANDON        MOSUNNY   -4  -9  77 W13       30.22S WCI -23
DAUPHIN        FLURRIES  -2  -6  84 W9        30.24S WCI -18
ISLAND LAKE    MOSUNNY   -8 -17  65 W6        30.14F WCI -21
PILOT MOUND      N/A     -2  -8  78 NW13        N/A  WCI -21
THE PAS        CLOUDY    -6 -11  77 W7        30.17F WCI -20
THOMPSON       MOSUNNY  -17 -24  70 SW6       30.11S WCI -31
WINNIPEG       FLURRIES   9   5  85 NW15      30.22S WCI  -8
GILLAM         MOCLDY   -15 -22  70 W12       30.08S WCI -36
$$
                ***SASKATCHEWAN***

CITY           SKY/WX    TMP DP  RH WIND       PRES   REMARKS
ESTEVAN        MOSUNNY    3  -4  72 NW5       30.17F WCI  -6
KINDERSLEY     CLOUDY    14  10  85 SW12      30.08F WCI   0
LLOYDMINSTER   NOT AVBL
PRINCE ALBERT  FLURRIES  -2  -6  84 SW5       30.13F WCI -12
REGINA         PTSUNNY    3   0  85 S8        30.16F WCI -10
YORKTON        SUNNY     -8 -11  84 SW5       30.18S WCI -19
N. BATTLEFORD  FLURRIES   9   5  85 S8        30.09F WCI  -4


USA.gov is the U.S. government's official web portal to all federal, state and local government web resources and services.